AFL1712 UWGG-UWKD

Flight info

Callsign AFL1712
Flight time N/A
Altitude 29000
Route PESAB2S PESAB T765 NAMER L94 UNORO T788 KOROM KOROM1T
Aircraft A320/M-VGD/A

Departure

Time 2026-05-07 16:37
Airport Nizhny Novgorod / Strigino International Airport (UWGG)

Arrival

Time N/A
Airport Kazan International Airport (UWKD)
Time Latitude Longitude Altitude Speed Heading
2026-05-07 16:26 56.22234 43.78861 266 ft 0 kts 103°
2026-05-07 16:33 56.22228 43.78900 266 ft 8 kts 111°
2026-05-07 16:34 56.22177 43.78928 266 ft 8 kts 191°
2026-05-07 16:34 56.22108 43.78902 266 ft 16 kts 192°
2026-05-07 16:34 56.21966 43.78850 266 ft 23 kts 193°
2026-05-07 16:34 56.21936 43.78741 266 ft 6 kts 291°
2026-05-07 16:35 56.21935 43.78644 266 ft 13 kts 262°
2026-05-07 16:35 56.21930 43.78433 267 ft 17 kts 276°
2026-05-07 16:35 56.21934 43.78413 267 ft 0 kts 290°
2026-05-07 16:35 56.21939 43.78372 267 ft 8 kts 282°
2026-05-07 16:36 56.21969 43.78241 267 ft 14 kts 319°
2026-05-07 16:36 56.22047 43.78236 268 ft 0 kts 12°
2026-05-07 16:36 56.22174 43.78281 267 ft 60 kts 11°
2026-05-07 16:37 56.22880 43.78538 268 ft 147 kts 11°
2026-05-07 16:37 56.24042 43.78963 697 ft 182 kts 11°
2026-05-07 16:37 56.25388 43.79481 1241 ft 219 kts 11°
2026-05-07 16:37 56.27003 43.80075 1899 ft 255 kts 11°
2026-05-07 16:38 56.28831 43.80735 2549 ft 270 kts 11°
2026-05-07 16:38 56.30661 43.81396 3171 ft 262 kts 11°
2026-05-07 16:38 56.32494 43.82064 3808 ft 273 kts 11°
2026-05-07 16:38 56.34367 43.82754 4439 ft 276 kts 11°
2026-05-07 16:39 56.36257 43.83452 5068 ft 279 kts 11°
2026-05-07 16:39 56.38158 43.84250 5696 ft 282 kts 20°
2026-05-07 16:39 56.39798 43.86169 6327 ft 285 kts 46°
2026-05-07 16:39 56.40828 43.89225 6958 ft 288 kts 72°
2026-05-07 16:40 56.41055 43.92850 7489 ft 300 kts 98°
2026-05-07 16:40 56.40693 43.96593 8108 ft 312 kts 102°
2026-05-07 16:40 56.40279 44.00483 8761 ft 318 kts 102°
2026-05-07 16:40 56.39856 44.04420 9411 ft 321 kts 102°
2026-05-07 16:41 56.39431 44.08401 10038 ft 325 kts 102°
2026-05-07 16:41 56.39009 44.12418 10648 ft 327 kts 102°
2026-05-07 16:41 56.38577 44.16469 11255 ft 330 kts 104°
2026-05-07 16:41 56.37879 44.20412 11890 ft 331 kts 115°
2026-05-07 16:42 56.36796 44.24075 12536 ft 331 kts 126°
2026-05-07 16:42 56.35386 44.27363 13200 ft 333 kts 132°
2026-05-07 16:42 56.33903 44.30595 13845 ft 336 kts 132°
2026-05-07 16:42 56.32410 44.33855 14431 ft 339 kts 132°
2026-05-07 16:43 56.30907 44.37146 15051 ft 342 kts 131°
2026-05-07 16:43 56.29395 44.40464 15679 ft 345 kts 131°
2026-05-07 16:43 56.27861 44.43830 16319 ft 348 kts 131°
2026-05-07 16:43 56.26319 44.47209 16970 ft 352 kts 131°
2026-05-07 16:44 56.24755 44.50626 17634 ft 355 kts 131°
2026-05-07 16:44 56.23172 44.54073 18288 ft 359 kts 131°
2026-05-07 16:44 56.21573 44.57549 18887 ft 363 kts 131°
2026-05-07 16:44 56.19958 44.61050 19490 ft 366 kts 131°
2026-05-07 16:45 56.18324 44.64592 20105 ft 370 kts 131°
2026-05-07 16:45 56.16663 44.68189 20583 ft 380 kts 131°
2026-05-07 16:45 56.14942 44.71906 20848 ft 395 kts 131°
2026-05-07 16:45 56.13157 44.75751 21099 ft 408 kts 131°
2026-05-07 16:46 56.11310 44.79727 21370 ft 421 kts 131°
2026-05-07 16:46 56.09407 44.83815 21636 ft 434 kts 131°
2026-05-07 16:46 56.07448 44.88009 21901 ft 443 kts 131°
2026-05-07 16:46 56.05463 44.92258 22170 ft 447 kts 131°
2026-05-07 16:47 56.03577 44.96705 22432 ft 451 kts 123°
2026-05-07 16:47 56.02192 45.01726 22950 ft 451 kts 110°
2026-05-07 16:47 56.01382 45.07118 23618 ft 449 kts 99°
2026-05-07 16:47 56.01165 45.12655 24203 ft 445 kts 87°
2026-05-07 16:48 56.01338 45.18156 24794 ft 443 kts 90°
2026-05-07 16:48 56.00964 45.23601 25405 ft 440 kts 101°
2026-05-07 16:48 56.00397 45.28955 26023 ft 437 kts 101°
2026-05-07 16:48 55.99821 45.34280 26659 ft 434 kts 101°
2026-05-07 16:49 55.99251 45.39554 27305 ft 431 kts 101°
2026-05-07 16:49 55.98688 45.44796 27971 ft 428 kts 101°
2026-05-07 16:49 55.98136 45.50000 28617 ft 426 kts 101°
2026-05-07 16:49 55.97583 45.55227 28873 ft 434 kts 101°
2026-05-07 16:50 55.97012 45.60592 28920 ft 445 kts 101°
2026-05-07 16:50 55.96426 45.66078 28924 ft 456 kts 101°
2026-05-07 16:50 55.95822 45.71707 28926 ft 466 kts 101°
2026-05-07 16:51 55.94571 45.83281 28929 ft 483 kts 101°
2026-05-07 16:51 55.93267 45.95164 28928 ft 491 kts 102°
2026-05-07 16:52 55.91944 46.07118 28931 ft 491 kts 102°
2026-05-07 16:52 55.90608 46.19041 28940 ft 490 kts 102°
2026-05-07 16:53 55.89268 46.30955 28944 ft 490 kts 102°
2026-05-07 16:53 55.87920 46.42842 28949 ft 489 kts 102°
2026-05-07 16:54 55.86561 46.54711 28949 ft 489 kts 102°
2026-05-07 16:54 55.85183 46.66566 28955 ft 489 kts 102°
2026-05-07 16:55 55.83800 46.78400 28963 ft 489 kts 102°
2026-05-07 16:55 55.82407 46.90234 28970 ft 489 kts 102°
2026-05-07 16:56 55.81001 47.02066 28972 ft 488 kts 102°
2026-05-07 16:56 55.78876 47.19760 28979 ft 487 kts 103°
2026-05-07 16:57 55.77445 47.31526 28976 ft 486 kts 103°
2026-05-07 16:57 55.76006 47.43262 28973 ft 486 kts 103°
2026-05-07 16:58 55.74567 47.54984 28980 ft 486 kts 103°
2026-05-07 16:58 55.73118 47.66683 28988 ft 485 kts 103°
2026-05-07 16:59 55.71643 47.78362 28988 ft 485 kts 103°
2026-05-07 16:59 55.70157 47.90017 28990 ft 484 kts 103°
2026-05-07 17:00 55.68685 48.01542 28817 ft 464 kts 103°
2026-05-07 17:00 55.67997 48.06944 28660 ft 434 kts 103°
2026-05-07 17:00 55.67350 48.11995 28511 ft 408 kts 103°
2026-05-07 17:01 55.66727 48.16802 27981 ft 394 kts 103°
2026-05-07 17:01 55.66119 48.21460 27454 ft 382 kts 103°
2026-05-07 17:01 55.65525 48.25993 26935 ft 375 kts 103°
2026-05-07 17:01 55.64938 48.30465 26421 ft 371 kts 104°
2026-05-07 17:02 55.64357 48.34893 25793 ft 368 kts 104°
2026-05-07 17:02 55.63775 48.39304 24977 ft 367 kts 104°
2026-05-07 17:02 55.63193 48.43697 24169 ft 366 kts 104°
2026-05-07 17:02 55.62613 48.48076 23344 ft 365 kts 104°
2026-05-07 17:03 55.62062 48.52459 22416 ft 364 kts 98°
2026-05-07 17:03 55.61993 48.56928 21547 ft 363 kts 88°
2026-05-07 17:03 55.62098 48.61362 20706 ft 361 kts 87°
2026-05-07 17:03 55.62215 48.65792 19859 ft 360 kts 87°
2026-05-07 17:04 55.62330 48.70211 19033 ft 359 kts 87°
2026-05-07 17:04 55.62441 48.74598 18374 ft 354 kts 87°
2026-05-07 17:04 55.62550 48.78917 17679 ft 348 kts 87°
2026-05-07 17:04 55.62654 48.83109 16974 ft 343 kts 87°